Alma, MI

3:53 PM EDT on October 22, 2017 (GMT -0400)
Gratiot Community

Weather History for KAMN - March, 2013

Change the Weather History Date:

Saturday, March 2, 2013

  Actual Average Record
Temperature  
Mean Temperature 20 °F -  
Max Temperature 24 °F 37 °F 58 °F (1964)
Min Temperature 16 °F 19 °F -13 °F (1962)
Degree Days  
Heating Degree Days 45    
Moisture  
Dew Point 15 °F    
Average Humidity 77    
Maximum Humidity 87    
Minimum Humidity 67    
Precipitation  
Precipitation 0.00 in - - ()
Sea Level Pressure  
Sea Level Pressure 30.10 in    
Wind  
Wind Speed 8 mph (NW)    
Max Wind Speed 14 mph    
Max Gust Speed 16 mph    
Visibility 10 miles    
Events Snow    
Averages and records for this station are not official NWS values.
T = Trace of Precipitation, MM = Missing Value Source: NWS Daily Summary

Daily Weather History Graph

Daily Weather History Graph

Search for Another Location

Airport or City:

Trip Planner

Search our weather history database for the weather conditions in past years. The results will help you decide how hot, cold, wet, or windy it might be!

Date:

Astronomy

Mar. 02, 2013 Rise Set
Actual Time 7:12 AM EST 6:29 PM EST
Civil Twilight 6:44 AM EST 6:57 PM EST
Nautical Twilight 6:11 AM EST 7:31 PM EST
Astronomical Twilight 5:38 AM EST 8:04 PM EST
Moon No Moon Rise 9:30 AM EST (3/2)
Length of Visible Light 12h 13m
Length of Day
11h 16m
Waning Gibbous, 74% of the Moon is Illuminated
Mar 2
Waning Gibbous
Mar 4
Last Quarter
Mar 11
New
Mar 19
First Quarter
Mar 27
Full

Hourly Weather History & Observations

Time (EST) Temp. Windchill Dew Point Humidity Pressure Visibility Wind Dir Wind Speed Gust Speed Precip Events Conditions
12:13 AM 22.8 °F 14.5 °F 15.8 °F 74% 30.12 in 10.0 mi NNW 6.9 mph - N/A   Overcast
12:33 AM 22.6 °F 14.3 °F 14.9 °F 72% 30.12 in 10.0 mi NNW 6.9 mph - N/A   Overcast
12:53 AM 22.3 °F 13.0 °F 14.9 °F 73% 30.12 in 10.0 mi NNW 8.1 mph - N/A   Overcast
1:13 AM 21.9 °F 12.5 °F 14.9 °F 74% 30.12 in 10.0 mi NNW 8.1 mph - N/A   Overcast
1:33 AM 21.6 °F 11.3 °F 14.4 °F 74% 30.12 in 10.0 mi NNW 9.2 mph - N/A   Overcast
1:53 AM 20.8 °F 11.2 °F 14.0 °F 75% 30.12 in 10.0 mi NNW 8.1 mph - N/A   Overcast
2:13 AM 20.3 °F 10.6 °F 13.6 °F 75% 30.12 in 10.0 mi North 8.1 mph - N/A   Overcast
2:33 AM 20.1 °F 9.5 °F 13.1 °F 74% 30.11 in 10.0 mi North 9.2 mph - N/A   Overcast
2:53 AM 20.1 °F 9.5 °F 13.1 °F 74% 30.11 in 10.0 mi NNW 9.2 mph - N/A   Overcast
3:14 AM 19.9 °F 7.3 °F 12.9 °F 74% 30.11 in 10.0 mi NNW 12.7 mph 16.1 mph N/A   Overcast
3:34 AM 19.9 °F 9.3 °F 13.1 °F 75% 30.11 in 10.0 mi NNW 9.2 mph - N/A   Overcast
3:54 AM 19.9 °F 10.1 °F 13.6 °F 77% 30.10 in 10.0 mi NNW 8.1 mph - N/A   Overcast
4:14 AM 19.8 °F 9.9 °F 13.6 °F 77% 30.10 in 10.0 mi NNW 8.1 mph - N/A   Overcast
4:34 AM 19.8 °F 9.1 °F 13.3 °F 76% 30.10 in 10.0 mi NNW 9.2 mph - N/A   Overcast
4:54 AM 19.9 °F 10.1 °F 13.8 °F 77% 30.10 in 10.0 mi NNW 8.1 mph - N/A   Overcast
5:14 AM 19.9 °F 10.1 °F 14.0 °F 78% 30.10 in 10.0 mi NNW 8.1 mph - N/A   Overcast
5:34 AM 19.4 °F 10.4 °F 14.0 °F 80% 30.10 in 10.0 mi NNW 6.9 mph - N/A   Overcast
5:54 AM 19.4 °F 10.4 °F 14.4 °F 81% 30.10 in 10.0 mi NNW 6.9 mph - N/A   Overcast
6:14 AM 19.8 °F 10.8 °F 14.7 °F 81% 30.10 in 10.0 mi NNW 6.9 mph - N/A   Overcast
6:35 AM 19.6 °F 9.7 °F 14.9 °F 82% 30.10 in 10.0 mi NW 8.1 mph - N/A   Overcast
7:10 AM 19.4 °F 8.6 °F 15.3 °F 84% 30.10 in 10.0 mi NNW 9.2 mph - N/A   Overcast
7:30 AM 19.4 °F 9.5 °F 15.3 °F 84% 30.11 in 10.0 mi NNW 8.1 mph - N/A   Overcast
7:50 AM 19.4 °F 8.6 °F 15.1 °F 83% 30.11 in 10.0 mi NNW 9.2 mph - N/A   Overcast
8:10 AM 19.4 °F 9.5 °F 15.3 °F 84% 30.11 in 10.0 mi NNW 8.1 mph - N/A Snow Light Snow
8:30 AM 19.8 °F 9.1 °F 15.6 °F 84% 30.11 in 10.0 mi NNW 9.2 mph - N/A Snow Light Snow
8:50 AM 19.9 °F 10.1 °F 15.8 °F 84% 30.12 in 10.0 mi NW 8.1 mph - N/A Snow Light Snow
9:10 AM 20.3 °F 9.8 °F 15.8 °F 83% 30.11 in 10.0 mi NNW 9.2 mph - N/A Snow Light Snow
9:31 AM 20.7 °F 10.2 °F 16.3 °F 83% 30.11 in 10.0 mi NNW 9.2 mph - N/A Snow Light Snow
9:51 AM 20.8 °F 10.4 °F 16.5 °F 83% 30.11 in 10.0 mi NNW 9.2 mph - N/A Snow Light Snow
10:11 AM 21.2 °F 10.9 °F 16.7 °F 83% 30.12 in 10.0 mi NW 9.2 mph - N/A Snow Light Snow
10:31 AM 21.7 °F 10.8 °F 16.7 °F 81% 30.11 in 10.0 mi NW 10.4 mph - N/A Snow Light Snow
10:51 AM 21.7 °F 10.2 °F 16.5 °F 80% 30.11 in 10.0 mi NW 11.5 mph - N/A Snow Light Snow
11:11 AM 22.1 °F 10.6 °F 16.9 °F 80% 30.11 in 10.0 mi NW 11.5 mph 16.1 mph N/A   Overcast
11:31 AM 22.3 °F 10.2 °F 16.7 °F 79% 30.11 in 10.0 mi NNW 12.7 mph - N/A   Overcast
11:51 AM 22.3 °F 9.7 °F 16.5 °F 79% 30.11 in 10.0 mi NW 13.8 mph - N/A Snow Light Snow
12:12 PM 22.6 °F 11.9 °F 16.2 °F 76% 30.11 in 10.0 mi NNW 10.4 mph - N/A   Overcast
12:32 PM 22.8 °F 10.4 °F 15.8 °F 74% 30.11 in 10.0 mi NNW 13.8 mph - N/A   Overcast
12:52 PM 23.0 °F 11.7 °F 15.4 °F 73% 30.11 in 10.0 mi NNW 11.5 mph - N/A   Overcast
1:12 PM 23.0 °F 11.1 °F 15.4 °F 73% 30.10 in 10.0 mi NNW 12.7 mph - N/A Snow Light Snow
1:32 PM 23.0 °F 11.7 °F 15.1 °F 72% 30.10 in 10.0 mi NNW 11.5 mph - N/A   Overcast
1:52 PM 23.0 °F 12.4 °F 15.4 °F 73% 30.09 in 10.0 mi NNW 10.4 mph - N/A   Overcast
2:12 PM 23.2 °F 12.0 °F 15.4 °F 72% 30.09 in 10.0 mi NNW 11.5 mph - N/A   Overcast
2:32 PM 23.5 °F 12.4 °F 15.1 °F 70% 30.08 in 10.0 mi NNW 11.5 mph - N/A   Overcast
2:53 PM 23.9 °F 14.2 °F 15.6 °F 71% 30.09 in 10.0 mi North 9.2 mph - N/A   Overcast
3:13 PM 24.3 °F 15.4 °F 15.8 °F 70% 30.08 in 10.0 mi NNW 8.1 mph - N/A   Overcast
3:33 PM 24.4 °F 14.9 °F 15.6 °F 69% 30.08 in 10.0 mi NW 9.2 mph - N/A   Overcast
3:53 PM 23.9 °F - 15.1 °F 69% 30.08 in 10.0 mi Calm Calm - N/A Snow Light Snow
4:13 PM 24.4 °F 18.6 °F 15.8 °F 70% 30.08 in 10.0 mi NW 4.6 mph - N/A   Overcast
4:33 PM 24.6 °F 16.7 °F 15.6 °F 69% 30.08 in 10.0 mi NNW 6.9 mph - N/A   Overcast
4:53 PM 24.8 °F 16.9 °F 15.8 °F 69% 30.08 in 10.0 mi WNW 6.9 mph - N/A   Overcast
5:13 PM 24.6 °F 20.3 °F 15.4 °F 68% 30.08 in 10.0 mi NW 3.5 mph - N/A   Overcast
5:33 PM 24.8 °F 19.1 °F 15.1 °F 67% 30.08 in 10.0 mi NW 4.6 mph - N/A   Mostly Cloudy
5:54 PM 24.4 °F 20.1 °F 15.1 °F 68% 30.08 in 10.0 mi NW 3.5 mph - N/A   Clear
6:14 PM 24.3 °F - 14.7 °F 67% 30.08 in 10.0 mi Calm Calm - N/A   Clear
6:34 PM 23.4 °F - 14.5 °F 69% 30.08 in 10.0 mi Calm Calm - N/A   Clear
6:54 PM 21.0 °F - 14.0 °F 74% 30.08 in 10.0 mi Calm Calm - N/A   Clear
7:14 PM 19.2 °F - 14.2 °F 81% 30.08 in 10.0 mi Calm Calm - N/A   Mostly Cloudy
7:34 PM 16.9 °F - 12.7 °F 84% 30.08 in 10.0 mi Calm Calm - N/A   Overcast
7:54 PM 17.2 °F - 13.6 °F 86% 30.08 in 10.0 mi Calm Calm - N/A   Overcast
8:14 PM 17.2 °F 11.9 °F 14.0 °F 87% 30.08 in 10.0 mi West 3.5 mph - N/A   Overcast
8:35 PM 17.8 °F 12.5 °F 13.8 °F 84% 30.09 in 10.0 mi WNW 3.5 mph - N/A   Overcast
8:55 PM 19.4 °F 14.3 °F 14.5 °F 81% 30.08 in 10.0 mi West 3.5 mph - N/A   Overcast
9:15 PM 19.9 °F 14.9 °F 14.4 °F 79% 30.09 in 10.0 mi WNW 3.5 mph - N/A   Overcast
9:35 PM 19.6 °F 13.0 °F 14.0 °F 79% 30.09 in 10.0 mi WNW 4.6 mph - N/A   Overcast
9:50 PM 19.8 °F 10.8 °F 14.0 °F 78% 30.09 in 10.0 mi WNW 6.9 mph - N/A   Mostly Cloudy
10:10 PM 19.8 °F 11.9 °F 14.0 °F 78% 30.08 in 10.0 mi NW 5.8 mph - N/A   Clear
10:30 PM 19.0 °F 11.1 °F 13.6 °F 79% 30.08 in 10.0 mi NW 5.8 mph - N/A   Clear
10:50 PM 18.5 °F 10.4 °F 13.5 °F 81% 30.08 in 10.0 mi NW 5.8 mph - N/A   Clear
11:10 PM 18.3 °F 10.2 °F 13.5 °F 81% 30.08 in 10.0 mi NW 5.8 mph - N/A   Clear
11:31 PM 18.0 °F 11.1 °F 13.1 °F 81% 30.08 in 10.0 mi NW 4.6 mph - N/A   Clear
11:50 PM 17.1 °F 11.7 °F 12.7 °F 83% 30.08 in 10.0 mi NNW 3.5 mph - N/A   Clear